| time (UTC) | temp F | wind direction | speed MPH | gust MPH | rain 1hr in | rain 24hr in | rain mn in | humidity % | barometer mb |
| 20260504201513 | 70 | 313 | 7.0 | 13.0 | 0.00 | 0.00 | 0.00 | 100 | 1013.3 |
| 20260504200009 | 68 | 5 | 7.0 | 14.0 | 0.00 | 0.00 | 0.00 | 100 | 1013.6 |
| 20260504194508 | 68 | 25 | 8.0 | 13.0 | 0.00 | 0.00 | 0.00 | 100 | 1014.1 |
| 20260504193008 | 67 | 5 | 9.0 | 20.0 | 0.00 | 0.00 | 0.00 | 100 | 1014.2 |
| 20260504191509 | 68 | 342 | 11.0 | 19.0 | 0.00 | 0.00 | 0.00 | 100 | 1013.9 |
| 20260504190007 | 69 | 336 | 9.0 | 18.0 | 0.00 | 0.00 | 0.00 | 100 | 1013.4 |
| 20260504184505 | 69 | 344 | 10.0 | 19.0 | 0.00 | 0.00 | 0.00 | 100 | 1013.3 |
| 20260504183008 | 68 | 12 | 8.0 | 16.0 | 0.00 | 0.00 | 0.00 | 100 | 1013.5 |
| 20260504181502 | 67 | 355 | 7.0 | 13.0 | 0.00 | 0.00 | 0.00 | 100 | 1013.3 |
| 20260504180100 | 67 | 346 | 7.0 | 17.0 | 0.00 | 0.00 | 0.00 | 100 | 1013.3 |
| 20260504174558 | 67 | 355 | 8.0 | 13.0 | 0.00 | 0.00 | 0.00 | 100 | 1013.4 |
| 20260504173058 | 66 | 340 | 9.0 | 17.0 | 0.00 | 0.00 | 0.00 | 100 | 1013.7 |
| 20260504171556 | 67 | 341 | 8.0 | 16.0 | 0.00 | 0.00 | 0.00 | 100 | 1013.9 |
| 20260504081540 | 50 | 346 | 5.0 | 12.0 | 0.00 | 0.00 | 0.00 | 100 | 1016.7 |
| 20260504050004 | 53 | 313 | 5.0 | 12.0 | 0.00 | 0.00 | 0.00 | 100 | 1018.6 |
| 20260504044600 | 53 | 329 | 4.0 | 9.0 | 0.00 | 0.00 | 0.00 | 100 | 1018.8 |
| 20260504043104 | 53 | 331 | 5.0 | 9.0 | 0.00 | 0.00 | 0.00 | 100 | 1018.9 |
| 20260504041554 | 52 | 326 | 3.0 | 8.0 | 0.00 | 0.00 | 0.00 | 100 | 1019.1 |
| 20260504040123 | 52 | 331 | 3.0 | 6.0 | 0.00 | 0.00 | 0.00 | 100 | 1019.2 |
| 20260504034550 | 53 | 323 | 2.0 | 8.0 | 0.00 | 0.00 | 0.00 | 100 | 1019.3 |
| 20260504033051 | 53 | 316 | 3.0 | 6.0 | 0.00 | 0.00 | 0.00 | 100 | 1019.4 |
| 20260504031600 | 54 | 322 | 4.0 | 9.0 | 0.00 | 0.00 | 0.00 | 100 | 1019.5 |
| 20260504030049 | 54 | 323 | 4.0 | 8.0 | 0.00 | 0.00 | 0.00 | 100 | 1019.8 |
| 20260504024550 | 51 | 325 | 2.0 | 6.0 | 0.00 | 0.00 | 0.00 | 100 | 1019.8 |
| 20260504023048 | 51 | 152 | 0.0 | 0.0 | 0.00 | 0.00 | 0.00 | 100 | 1019.7 |
| 20260504021549 | 51 | 152 | 0.0 | 2.0 | 0.00 | 0.00 | 0.00 | 100 | 1019.8 |
| 20260504014547 | 52 | 152 | 0.0 | 0.0 | 0.00 | 0.00 | 0.00 | 100 | 1019.8 |
| 20260504013047 | 52 | 152 | 0.0 | 1.0 | 0.00 | 0.00 | 0.00 | 100 | 1019.8 |
| 20260504011546 | 52 | 152 | 0.0 | 1.0 | 0.00 | 0.00 | 0.00 | 100 | 1019.7 |
| 20260504010049 | 52 | 152 | 0.0 | 2.0 | 0.00 | 0.00 | 0.00 | 100 | 1019.6 |
| 20260504004545 | 52 | 152 | 1.0 | 2.0 | 0.00 | 0.00 | 0.00 | 100 | 1019.7 |
| 20260504003045 | 53 | 146 | 0.0 | 2.0 | 0.00 | 0.00 | 0.00 | 100 | 1019.3 |
| 20260504001550 | 53 | 107 | 0.0 | 1.0 | 0.00 | 0.00 | 0.00 | 100 | 1019.4 |
| 20260504000041 | 54 | 107 | 0.0 | 1.0 | 0.00 | 0.00 | 0.00 | 100 | 1019.6 |
| 20260503234600 | 54 | 107 | 0.0 | 1.0 | 0.00 | 0.00 | 0.00 | 100 | 1019.7 |
| 20260503233045 | 55 | 107 | 0.0 | 1.0 | 0.00 | 0.00 | 0.00 | 100 | 1020.1 |
| 20260503231536 | 55 | 106 | 0.0 | 1.0 | 0.00 | 0.00 | 0.00 | 100 | 1020.3 |
| 20260503230034 | 55 | 106 | 0.0 | 2.0 | 0.00 | 0.00 | 0.00 | 100 | 1020.6 |
| 20260503224534 | 55 | 53 | 0.0 | 2.0 | 0.00 | 0.00 | 0.00 | 100 | 1020.6 |
| 20260503223033 | 54 | 52 | 0.0 | 1.0 | 0.00 | 0.00 | 0.00 | 100 | 1020.8 |
| 20260503221536 | 53 | 52 | 0.0 | 1.0 | 0.00 | 0.00 | 0.00 | 100 | 1020.9 |
| 20260503220031 | 53 | 44 | 1.0 | 14.0 | 0.00 | 0.00 | 0.00 | 100 | 1021.1 |
| 20260503214531 | 56 | 334 | 10.0 | 16.0 | 0.00 | 0.00 | 0.00 | 100 | 1021.4 |
| 20260503213033 | 58 | 45 | 4.0 | 15.0 | 0.00 | 0.00 | 0.00 | 100 | 1021.2 |
| 20260503211530 | 59 | 337 | 6.0 | 14.0 | 0.00 | 0.00 | 0.00 | 100 | 1021.1 |
| 20260503210029 | 59 | 22 | 8.0 | 16.0 | 0.00 | 0.00 | 0.00 | 100 | 1021.0 |
| 20260503204528 | 60 | 329 | 8.0 | 17.0 | 0.00 | 0.00 | 0.00 | 100 | 1020.8 |
| 20260503203028 | 61 | 331 | 6.0 | 18.0 | 0.00 | 0.00 | 0.00 | 100 | 1020.9 |